Simultaneous Nadir Overpasses (SNOs) Predictions

Prediction of SNOs between AQUA and NOAA-19 Satellite Orbit:

Table of predicted SNOs for the next 14.0 days since TLE Epoch: 4/12/2019
Index Date (AQUA) Time (AQUA) Lat,Lon (AQUA) SZA (AQUA ) Date (NOAA-19) Time (NOAA-19) Lat,Lon (NOAA-19) SZA (NOAA-19 ) Distance(km) Time Diff (sec)
1 04/14/2019 19:34:51 80.49,-148.50 72.69 04/14/2019 19:33:57 80.47,-148.61 72.71 2.72 54
2 04/14/2019 20:24:17 -80.48, 19.17 107.34 04/14/2019 20:24:51 -80.49, 19.18 107.34 1.30 34
3 04/17/2019 01:08:32 -80.47, -51.72 108.16 04/17/2019 01:07:19 -80.47, -51.79 108.11 1.60 73
4 04/17/2019 01:58:00 80.50, 115.59 71.89 04/17/2019 01:58:24 80.48, 115.61 71.87 1.84 24
5 04/19/2019 07:31:41 -80.48,-147.66 108.93 04/19/2019 07:31:46 -80.48,-147.61 108.94 0.91 5
6 04/21/2019 13:05:23 80.47, -50.97 70.28 04/21/2019 13:05:18 80.49, -50.85 70.28 2.90 5
7 04/23/2019 18:39:05 -80.49, 45.41 110.45 04/23/2019 18:38:41 -80.47, 45.54 110.47 3.23 24
8 04/23/2019 19:28:32 80.49,-146.96 69.55 04/23/2019 19:29:45 80.49,-146.73 69.50 4.19 73
9 04/26/2019 00:12:47 80.48, 142.06 68.81 04/26/2019 00:12:13 80.47, 142.20 68.80 3.03 34




NCC Satellite Simultaneous Nadir Overpasses (SNOs) Prediction Service
